Temperature
23 21 21 21 22 23 24 24 23 23 24 24 24 23 23 22 22 22 22 21 21 22 22 22 22 21 21 20 20 20 19 19 19 18 18 18 18 17 17 17 17 17 17 17
20 21 22 22 22 23 23 23 23 23 24 24 24 23 22 22 22 22 22 21 22 22 22 22 21 21 21 21 20 20 19 19 19 18 18 18 18 18 17 17 17 17 17 17
22 22 23 23 23 23 23 23 24 24 24 23 24 23 22 22 22 22 22 22 22 22 22 22 22 21 21 20 20 20 19 19 19 18 18 17 17 17 17 17 17 17 17 17
21 22 23 23 23 23 22 23 23 24 23 22 23 23 22 21 21 21 21 21 22 22 22 22 22 21 21 21 20 20 19 19 18 18 18 17 17 17 17 17 17 17 17 17
21 22 23 23 23 23 23 24 24 23 23 22 22 22 21 20 21 21 21 21 22 22 22 22 22 22 21 21 20 20 19 19 18 18 18 17 17 17 17 17 17 17 17 17
22 23 23 23 24 24 24 22 21 18 19 21 22 22 21 19 21 21 21 21 21 22 22 22 22 21 21 20 20 19 19 19 18 18 18 17 17 17 17 17 17 17 17 17
23 23 24 24 25 24 23 20 20 21 19 20 20 21 20 21 21 21 21 21 21 22 22 22 21 21 21 20 20 19 19 19 18 18 18 17 17 17 17 17 17 17 17 17
21 21 23 23 24 23 22 21 20 21 20 20 20 21 21 21 21 22 22 22 21 22 22 22 22 21 21 20 20 19 19 19 18 18 18 17 17 17 17 17 17 17 17 17
19 20 22 24 24 23 21 20 20 18 19 20 20 20 21 21 21 21 21 21 21 22 22 22 22 21 21 20 20 19 19 19 18 18 18 17 17 17 17 17 17 17 17 17
19 21 23 23 24 22 21 18 17 18 19 20 21 21 20 22 21 20 20 21 21 22 22 22 22 21 21 20 20 19 19 18 18 18 17 17 17 17 17 17 17 17 17 17
20 21 22 22 24 22 21 20 17 16 17 19 20 20 20 20 20 20 20 21 21 22 22 22 21 21 21 20 20 19 19 18 18 18 17 17 17 17 17 17 17 17 17 17
19 18 19 21 22 23 22 20 18 20 19 17 19 20 21 20 20 20 20 21 21 22 22 22 21 21 20 20 19 19 18 18 18 18 17 17 17 17 17 17 17 17 16 16
18 18 19 20 21 22 22 20 18 17 16 16 18 21 20 19 20 20 20 21 21 21 21 21 21 21 20 20 19 19 18 18 18 18 17 17 17 17 17 17 17 16 16 16
18 17 18 20 20 21 22 21 18 18 17 17 18 21 20 20 19 19 20 20 21 21 21 21 20 20 20 20 19 19 18 18 18 18 17 17 17 17 17 17 16 16 16 16
18 18 19 19 21 22 23 22 19 20 19 19 20 19 20 19 19 20 20 20 20 20 20 20 20 20 20 19 19 19 18 18 18 18 17 17 17 16 16 16 16 16 16 16
16 18 19 21 21 22 23 22 21 21 20 20 21 20 19 19 20 19 20 20 20 20 21 21 20 20 20 20 19 18 18 18 17 17 17 17 17 16 16 16 16 16 16 16
15 16 17 19 20 22 21 21 21 21 20 20 21 21 18 18 18 19 19 20 20 21 21 21 21 20 20 20 19 18 18 17 17 17 17 17 16 16 16 16 16 16 15 15
15 15 14 17 20 21 20 20 21 20 20 19 19 18 18 18 19 19 20 20 20 21 21 21 21 20 20 19 19 18 18 17 17 17 17 16 16 16 16 15 15 15 15 15
14 15 14 15 18 20 21 20 19 20 20 19 18 17 17 18 18 18 20 20 21 21 21 21 20 20 19 19 18 18 17 17 17 16 16 16 16 15 15 15 15 15 15 15
13 13 14 15 18 19 20 20 19 20 20 18 17 16 17 18 18 18 19 19 19 20 20 19 19 19 19 18 18 17 17 17 16 16 16 15 15 15 15 15 14 14 14 14
15 14 15 15 17 18 18 17 19 20 20 18 17 17 17 17 18 19 19 19 19 19 19 19 18 18 18 17 17 17 16 16 16 15 15 15 15 15 14 14 14 14 14 14
14 14 14 14 17 17 17 17 18 18 18 18 18 18 18 18 18 18 18 18 18 18 18 18 18 17 17 17 16 16 16 16 15 15 15 15 14 14 14 14 14 13 13 13
12 13 12 13 14 15 15 15 16 17 17 17 18 18 18 18 17 17 17 17 17 18 18 17 17 17 16 16 16 16 15 15 15 14 14 14 14 13 13 13 13 13 13 12
12 12 12 13 13 14 15 15 16 17 18 18 18 18 18 18 17 17 17 17 17 17 17 17 16 16 16 15 15 15 14 14 14 14 13 13 13 13 13 12 12 12 12 12
12 12 12 13 13 14 15 15 16 17 17 18 17 17 17 18 17 16 16 16 16 16 16 16 16 16 15 14 14 14 14 13 13 13 13 12 12 12 12 11 11 11 11 11
11 12 12 13 14 13 14 15 16 16 17 17 17 16 16 16 16 15 15 15 15 15 15 15 14 14 14 14 13 13 13 13 13 12 12 12 11 11 11 11 10 10 10 10
Wind_Speed
4 4 3 6 6 5 3 1 5 7 5 2 2 2 1 3 5 6 7 8 8 7 6 6 7 8 9 9 10 11 10 9 8 6 6 5 5 5 4 6 9 10 9 10
5 3 6 5 5 3 2 3 5 6 4 1 1 3 2 1 4 6 8 7 7 6 5 6 7 8 9 10 11 10 10 10 9 7 6 4 4 4 4 4 6 9 9 10
7 5 3 5 4 3 3 4 5 4 5 6 4 5 3 2 0 2 4 6 7 9 9 8 8 8 8 9 10 10 10 9 9 7 5 3 3 2 2 3 3 6 9 9
5 6 3 3 4 6 5 6 6 3 2 3 2 1 5 3 3 4 5 6 8 8 8 8 8 8 9 9 8 8 8 8 7 8 7 7 6 5 5 5 4 4 6 8
7 4 5 6 7 9 7 0 2 0 3 2 3 2 7 2 4 8 8 8 8 8 8 9 9 9 8 8 7 7 7 7 7 8 8 7 5 4 3 3 4 4 4 5
6 4 5 7 4 7 4 6 7 6 5 1 2 2 6 5 7 6 6 7 7 7 8 7 6 6 6 6 6 6 7 6 7 8 8 7 7 6 5 5 5 4 3 3
3 4 4 5 1 2 5 6 5 5 5 4 4 2 8 8 8 8 7 7 8 8 8 8 8 7 7 8 7 7 7 7 7 7 7 7 7 7 7 6 6 5 4 4
5 6 6 6 8 6 6 9 8 5 5 5 3 5 7 6 6 5 5 6 7 8 8 8 8 8 8 8 8 7 7 6 7 7 6 5 6 5 4 5 5 5 5 5
8 7 5 5 6 11 7 5 8 7 4 0 5 7 8 3 3 1 4 7 8 9 9 9 8 8 8 8 8 7 7 6 6 6 5 4 5 5 5 4 5 4 4 4
10 4 4 3 5 4 6 10 7 7 6 3 5 5 5 7 5 2 5 7 7 7 8 8 8 8 7 7 6 6 6 5 5 5 4 4 4 4 4 4 5 4 4 4
8 5 3 2 6 8 6 6 6 6 6 7 3 7 7 9 7 7 8 7 7 9 9 8 7 7 7 6 6 6 5 5 4 4 3 3 2 2 2 3 4 4 4 4
7 6 4 7 5 4 6 9 9 7 5 5 5 8 7 7 7 7 6 5 6 6 7 7 7 7 7 7 6 6 5 5 4 4 4 3 3 2 2 2 2 3 3 3
9 7 2 6 5 1 4 6 6 7 7 7 6 8 4 2 3 4 5 6 6 7 7 7 7 7 7 6 6 6 5 5 5 5 4 3 3 2 2 2 2 2 3 3
7 6 8 10 9 6 5 6 7 8 6 7 9 9 7 5 5 4 6 6 7 7 8 7 7 6 6 6 5 5 5 5 5 5 4 3 2 2 2 1 1 2 2 3
6 5 6 6 5 5 5 6 9 8 9 10 10 10 11 10 8 6 7 8 8 8 8 8 7 6 6 5 5 5 5 5 5 5 4 3 2 2 2 2 2 2 2 2
4 5 4 2 3 5 3 4 8 6 6 6 5 8 8 3 4 5 8 9 9 9 9 8 7 7 6 6 6 5 4 4 5 5 3 3 3 3 2 2 2 2 2 2
2 5 4 3 2 5 3 4 6 5 4 7 8 9 3 5 8 10 10 10 10 10 9 9 8 7 6 5 5 5 4 5 5 4 3 3 3 3 2 2 3 2 2 2
5 5 4 2 4 5 7 3 3 4 2 4 4 4 6 6 5 3 5 9 9 9 9 9 8 7 5 5 5 5 5 5 5 4 4 3 3 3 2 3 2 2 2 2
4 7 5 4 4 2 3 0 3 4 2 3 4 3 4 6 5 2 1 5 6 6 6 6 7 6 6 7 6 7 6 5 5 4 3 3 3 3 3 2 2 2 3 3
5 5 6 5 5 6 6 3 1 4 3 3 4 6 7 6 5 4 3 6 7 7 7 7 7 8 7 6 7 8 7 6 5 3 4 4 4 4 3 3 3 3 4 4
4 4 4 4 3 6 5 5 0 5 7 3 5 6 8 4 4 5 8 8 9 9 9 9 9 8 6 6 7 7 7 6 5 5 5 5 5 5 4 4 4 4 4 5
3 4 4 5 4 6 4 2 4 5 2 2 4 5 6 7 8 10 10 10 11 10 9 9 9 8 6 6 6 7 6 5 6 6 6 6 6 5 5 5 5 5 5 5
3 4 5 6 6 4 3 3 4 2 2 2 4 5 9 10 9 10 10 10 9 9 9 8 9 8 6 6 6 6 4 5 7 7 7 6 7 6 6 6 5 5 4 4
1 2 2 1 4 4 4 4 3 1 1 2 5 8 9 10 10 11 10 9 9 8 8 8 9 9 7 6 6 5 5 6 7 7 6 6 7 7 7 6 5 5 4 4
3 2 2 2 4 4 4 4 3 3 5 7 7 6 7 10 10 10 9 9 8 7 6 7 8 8 8 7 7 6 5 6 8 7 7 6 6 7 7 8 7 6 5 4
4 5 5 5 5 3 3 3 2 4 5 6 8 7 7 8 9 9 8 8 8 8 7 8 8 8 8 7 7 6 5 6 8 7 6 6 6 6 6 8 10 16 13 15
Wind_Direction
72 85 191 204 182 170 148 284 294 277 289 312 268 277 265 151 156 171 182 182 183 190 186 165 169 171 166 171 176 183 184 179 172 169 173 179 191 191 195 199 199 196 195 191
53 255 221 171 162 161 175 300 297 302 341 32 34 356 330 162 194 187 189 187 182 178 172 167 166 169 173 179 179 180 184 180 181 182 177 174 168 185 195 197 197 197 195 191
174 227 164 154 171 190 230 217 244 275 342 20 57 355 339 324 321 183 188 183 181 187 187 181 174 176 172 178 183 185 185 183 182 174 154 138 125 128 162 192 203 204 198 197
215 242 199 194 209 175 256 230 213 247 24 330 38 282 291 285 283 241 218 196 192 190 183 178 177 178 180 183 180 178 178 181 178 170 171 170 180 189 198 193 195 197 198 200
221 207 188 214 216 176 215 172 149 147 143 32 19 133 284 305 258 247 227 210 195 189 179 181 184 181 179 174 174 172 169 177 177 177 182 182 189 193 184 172 179 194 200 205
221 222 200 208 204 184 163 70 53 48 73 39 289 174 276 243 229 243 226 209 190 181 175 174 167 155 160 160 165 168 172 178 178 182 187 191 190 184 179 182 187 196 202 207
261 258 230 188 128 62 110 91 34 8 18 257 294 222 251 256 240 230 226 208 180 173 164 160 158 160 163 167 170 170 174 181 182 186 194 199 195 189 195 195 194 196 201 206
185 265 232 194 179 173 164 140 155 185 212 271 320 243 260 272 277 245 209 184 165 166 162 163 168 171 175 174 172 172 178 184 184 189 196 198 195 195 202 199 194 199 206 208
177 240 277 231 190 147 137 165 153 128 145 21 291 292 304 306 338 71 152 162 173 171 165 166 166 173 176 173 175 178 177 181 185 187 186 190 192 192 196 199 198 200 202 202
155 211 284 298 101 56 140 140 108 124 144 219 290 286 258 268 255 218 184 183 180 165 162 160 163 170 171 164 160 162 167 174 177 176 183 192 194 196 190 184 192 193 196 192
144 166 293 12 174 170 112 106 108 112 142 152 223 269 231 230 222 211 210 197 178 170 166 162 162 161 151 140 143 151 156 153 156 165 166 168 176 179 173 186 193 191 192 187
155 141 227 259 260 180 162 163 147 150 190 169 170 260 266 237 221 204 203 189 168 160 153 151 152 146 144 147 149 155 159 152 154 153 145 152 150 148 162 188 190 179 183 185
143 132 135 331 337 156 169 163 151 123 120 150 168 257 299 281 213 192 185 175 159 152 145 140 142 150 154 156 157 158 160 156 150 144 140 137 138 148 172 192 182 171 174 176
130 129 166 193 210 191 175 163 147 129 147 185 212 242 277 256 226 200 178 171 161 155 147 145 148 152 153 153 157 159 159 155 149 142 142 146 158 162 167 162 154 158 160 160
119 159 192 211 206 176 184 174 166 173 178 180 219 223 243 229 215 196 173 165 155 152 153 156 154 151 149 150 152 156 156 150 148 143 142 152 145 129 115 109 122 127 138 157
87 144 158 213 218 190 204 197 175 185 178 200 213 244 249 211 156 165 172 169 167 165 161 155 150 149 154 160 159 154 152 152 144 142 145 137 123 118 114 110 113 111 114 118
92 114 118 215 257 124 216 218 181 178 188 176 202 231 188 170 181 185 181 176 175 167 159 157 158 158 156 154 154 153 151 139 133 132 130 128 128 127 129 121 109 113 118 112
134 116 122 128 115 184 239 264 170 157 193 209 222 232 193 188 169 158 168 173 173 168 163 160 154 146 135 125 128 128 123 125 126 123 121 120 122 122 110 104 107 112 104 102
147 133 116 121 152 241 289 259 142 153 242 219 200 196 140 118 88 44 168 161 164 159 146 140 138 134 126 123 129 122 117 115 113 113 116 119 122 118 111 111 111 106 101 92
64 95 115 122 141 206 234 279 250 131 271 235 186 175 156 132 149 215 144 123 118 110 111 113 111 106 108 114 121 118 115 113 110 103 104 107 108 110 110 108 102 95 97 97
52 61 116 141 174 248 261 295 249 158 233 222 185 175 162 173 179 139 122 112 110 106 106 109 108 105 104 108 114 114 112 107 100 98 97 94 92 95 92 88 87 93 94 91
152 138 161 143 163 236 310 1 173 220 264 168 165 159 137 118 110 111 112 113 111 108 105 107 106 98 92 98 110 112 110 105 100 99 94 89 84 85 85 87 82 86 94 90
181 186 183 188 207 256 295 271 285 248 196 175 151 139 131 125 122 119 115 112 108 110 109 107 109 101 87 85 102 111 103 102 102 97 92 89 84 79 80 85 84 83 85 92
272 149 144 252 275 294 315 324 334 327 187 143 136 135 135 132 131 126 123 120 116 112 115 115 114 110 96 81 79 93 101 102 103 101 97 95 93 85 75 70 70 81 84 92
235 168 146 258 279 322 344 357 353 44 83 103 107 112 128 130 130 129 128 123 118 114 110 113 114 111 103 93 87 87 96 105 105 101 98 95 93 95 83 71 58 66 58 81
213 184 174 215 227 200 257 320 18 84 90 103 105 97 99 114 120 117 113 111 112 112 110 109 105 106 103 99 92 85 91 105 111 108 103 101 101 100 100 96 78 58 66 66
Height
1502 1509 1515 1513 1513 1514 1516 1519 1523 1515 1504 1505 1507 1507 1504 1504 1506 1508 1509 1511 1514 1516 1518 1521 1524 1526 1529 1531 1534 1536 1539 1542 1545 1548 1550 1552 1555 1558 1560 1563 1565 1568 1570 1572
1509 1512 1507 1507 1510 1512 1515 1520 1520 1512 1504 1506 1509 1509 1506 1505 1505 1506 1508 1510 1513 1515 1517 1519 1522 1524 1526 1529 1531 1534 1537 1540 1543 1545 1548 1551 1554 1556 1558 1561 1563 1565 1568 1570
1509 1507 1503 1506 1510 1513 1515 1518 1517 1515 1510 1508 1510 1516 1511 1507 1506 1507 1507 1509 1511 1512 1514 1517 1519 1522 1525 1527 1530 1532 1534 1537 1541 1544 1546 1549 1552 1554 1556 1558 1561 1563 1565 1568
1505 1502 1502 1505 1508 1511 1518 1509 1510 1512 1519 1525 1519 1532 1517 1511 1508 1506 1505 1506 1508 1510 1513 1515 1518 1521 1523 1526 1528 1531 1533 1536 1538 1541 1543 1546 1548 1550 1553 1555 1558 1561 1563 1565
1503 1499 1501 1505 1504 1505 1508 1504 1508 1511 1518 1527 1524 1532 1526 1513 1511 1505 1503 1504 1506 1508 1511 1514 1516 1519 1522 1525 1527 1530 1532 1534 1537 1539 1542 1544 1546 1549 1551 1553 1556 1558 1560 1562
1498 1495 1496 1497 1496 1499 1501 1508 1514 1523 1529 1540 1528 1532 1529 1517 1508 1502 1500 1501 1504 1507 1509 1512 1516 1518 1521 1524 1527 1529 1531 1533 1535 1538 1540 1542 1544 1546 1548 1551 1553 1555 1557 1559
1500 1495 1492 1492 1497 1499 1504 1522 1541 1542 1551 1546 1531 1531 1527 1505 1499 1498 1497 1499 1502 1505 1507 1511 1514 1517 1520 1523 1525 1527 1529 1532 1534 1536 1538 1540 1542 1544 1546 1548 1550 1552 1554 1556
1509 1510 1493 1490 1494 1501 1506 1516 1540 1550 1553 1546 1532 1532 1515 1499 1496 1494 1494 1497 1500 1503 1506 1510 1513 1516 1519 1522 1524 1526 1528 1531 1533 1535 1537 1539 1541 1542 1544 1546 1547 1549 1551 1553
1509 1507 1489 1486 1486 1493 1507 1514 1515 1537 1542 1545 1539 1526 1509 1497 1495 1494 1494 1496 1498 1501 1505 1509 1512 1515 1518 1521 1523 1526 1528 1530 1532 1533 1535 1537 1539 1540 1541 1543 1545 1546 1548 1550
1494 1502 1491 1486 1487 1491 1496 1507 1523 1536 1550 1551 1538 1531 1522 1503 1498 1495 1495 1495 1497 1501 1505 1508 1512 1515 1518 1520 1523 1525 1527 1529 1531 1533 1534 1536 1537 1538 1539 1541 1542 1544 1546 1548
1487 1498 1496 1491 1491 1496 1502 1509 1519 1532 1535 1549 1548 1534 1502 1497 1494 1494 1493 1494 1496 1500 1504 1508 1512 1515 1518 1520 1523 1525 1527 1529 1530 1532 1533 1534 1535 1537 1538 1539 1540 1542 1544 1545
1484 1497 1506 1497 1487 1486 1490 1500 1512 1525 1533 1538 1540 1529 1491 1491 1490 1491 1492 1494 1497 1500 1504 1507 1511 1514 1517 1519 1522 1524 1526 1528 1530 1531 1532 1533 1534 1535 1536 1537 1539 1540 1542 1543
1482 1497 1510 1508 1501 1492 1491 1496 1501 1512 1528 1539 1538 1521 1490 1489 1489 1490 1492 1494 1497 1500 1503 1507 1510 1513 1516 1519 1521 1523 1525 1527 1529 1530 1531 1532 1533 1534 1535 1536 1537 1539 1540 1541
1474 1491 1501 1508 1503 1492 1491 1494 1500 1507 1523 1530 1524 1509 1494 1490 1489 1490 1492 1494 1496 1500 1503 1507 1510 1513 1516 1518 1521 1523 1524 1526 1528 1529 1530 1531 1532 1533 1534 1535 1536 1537 1538 1539
1473 1487 1487 1487 1484 1484 1484 1487 1494 1497 1503 1511 1506 1504 1491 1486 1486 1487 1490 1493 1496 1499 1502 1506 1509 1512 1515 1518 1520 1522 1524 1525 1527 1528 1529 1530 1532 1533 1533 1534 1535 1536 1537 1537
1476 1484 1485 1484 1482 1482 1484 1483 1487 1489 1492 1495 1494 1494 1482 1482 1485 1487 1489 1491 1494 1497 1500 1504 1508 1511 1513 1516 1519 1521 1523 1525 1526 1527 1528 1530 1531 1532 1532 1533 1533 1534 1535 1536
1481 1485 1492 1494 1484 1483 1493 1484 1484 1485 1485 1487 1491 1485 1480 1481 1482 1483 1485 1488 1491 1494 1498 1502 1506 1509 1512 1516 1518 1520 1523 1524 1525 1526 1528 1529 1530 1531 1532 1532 1532 1533 1534 1535
1480 1487 1496 1498 1491 1502 1489 1477 1477 1480 1481 1480 1480 1478 1478 1477 1479 1482 1484 1487 1490 1493 1497 1501 1505 1509 1512 1515 1518 1520 1522 1524 1525 1526 1527 1528 1529 1530 1531 1531 1531 1532 1532 1533
1475 1483 1495 1502 1501 1495 1483 1477 1478 1481 1481 1478 1478 1477 1478 1479 1481 1483 1485 1487 1490 1494 1497 1501 1505 1509 1511 1514 1517 1519 1520 1523 1524 1525 1527 1528 1528 1529 1530 1530 1530 1531 1531 1532
1478 1480 1492 1499 1499 1502 1485 1474 1473 1477 1483 1476 1475 1476 1477 1479 1485 1485 1484 1487 1490 1494 1498 1502 1506 1509 1511 1514 1516 1517 1519 1521 1523 1525 1526 1527 1527 1528 1529 1529 1529 1530 1530 1530
1485 1488 1492 1496 1497 1491 1478 1474 1474 1487 1483 1473 1473 1474 1476 1477 1479 1481 1483 1487 1491 1495 1499 1502 1505 1508 1511 1514 1516 1517 1518 1519 1521 1524 1525 1526 1527 1528 1528 1528 1529 1529 1529 1530
1487 1491 1494 1497 1497 1494 1475 1474 1477 1476 1470 1470 1471 1473 1475 1477 1479 1481 1484 1487 1491 1495 1499 1502 1505 1508 1511 1513 1516 1517 1518 1519 1520 1522 1524 1525 1526 1527 1528 1528 1528 1528 1529 1529
1486 1486 1488 1489 1488 1479 1475 1475 1473 1471 1470 1470 1471 1474 1476 1478 1480 1483 1486 1489 1493 1496 1500 1503 1505 1508 1511 1513 1515 1517 1518 1519 1520 1522 1523 1524 1526 1527 1527 1527 1528 1528 1528 1529
1483 1482 1484 1484 1479 1476 1475 1473 1472 1471 1470 1471 1472 1474 1476 1478 1481 1484 1488 1491 1495 1498 1501 1503 1506 1508 1511 1513 1515 1517 1518 1519 1520 1521 1523 1524 1525 1526 1527 1527 1528 1528 1529 1529
1481 1480 1482 1482 1478 1475 1474 1474 1472 1471 1471 1473 1474 1477 1478 1480 1483 1486 1489 1492 1495 1499 1502 1504 1506 1508 1510 1513 1515 1517 1518 1520 1520 1521 1523 1524 1525 1526 1527 1528 1529 1529 1530 1531
1478 1478 1480 1480 1476 1476 1475 1474 1474 1473 1473 1475 1477 1479 1481 1483 1485 1488 1491 1494 1497 1500 1503 1505 1507 1509 1511 1513 1515 1517 1518 1519 1520 1521 1523 1524 1526 1527 1528 1529 1530 1531 1532 1533